AEE4K LGMT-LGHI

Flight info

Callsign AEE4K
Flight time 0h 19m
Altitude 12000
Route RIKSO DCT MARIK
Aircraft A20N/M-SDE2E3FGHIRWXY/LB1

Departure

Time 2026-04-22 07:35
Airport Mytilene International Airport (LGMT)

Arrival

Time 2026-04-22 07:55
Airport Chios Island National Airport (LGHI)
Time Latitude Longitude Altitude Speed Heading
2026-04-22 07:27 39.06139 26.59813 55 ft 0 kts 57°
2026-04-22 07:30 39.06111 26.59757 55 ft 0 kts 57°
2026-04-22 07:30 39.06115 26.59763 55 ft 0 kts 325°
2026-04-22 07:33 39.06117 26.59761 54 ft 3 kts 325°
2026-04-22 07:33 39.06151 26.59723 56 ft 12 kts 303°
2026-04-22 07:33 39.06209 26.59582 52 ft 32 kts 300°
2026-04-22 07:33 39.06376 26.59390 56 ft 48 kts 325°
2026-04-22 07:34 39.06594 26.59192 65 ft 20 kts 323°
2026-04-22 07:34 39.06657 26.59119 66 ft 1 kts 344°
2026-04-22 07:34 39.06662 26.59141 64 ft 10 kts 94°
2026-04-22 07:34 39.06527 26.59265 65 ft 50 kts 148°
2026-04-22 07:35 39.06038 26.59657 55 ft 117 kts 148°
2026-04-22 07:35 39.05203 26.60307 253 ft 151 kts 150°
2026-04-22 07:35 39.04283 26.61021 853 ft 154 kts 149°
2026-04-22 07:35 39.03402 26.61717 1740 ft 143 kts 149°
2026-04-22 07:36 39.02550 26.62476 2243 ft 166 kts 143°
2026-04-22 07:36 39.01567 26.63515 2663 ft 197 kts 147°
2026-04-22 07:36 39.00203 26.64211 2963 ft 230 kts 178°
2026-04-22 07:36 38.98567 26.63877 3589 ft 247 kts 199°
2026-04-22 07:37 38.97031 26.62849 4392 ft 254 kts 213°
2026-04-22 07:37 38.95665 26.61414 5465 ft 254 kts 225°
2026-04-22 07:37 38.94438 26.59782 6564 ft 253 kts 227°
2026-04-22 07:37 38.93238 26.58122 7598 ft 254 kts 229°
2026-04-22 07:38 38.92050 26.56423 8534 ft 258 kts 230°
2026-04-22 07:38 38.90860 26.54687 9476 ft 261 kts 231°
2026-04-22 07:38 38.89659 26.52912 10322 ft 267 kts 232°
2026-04-22 07:38 38.88395 26.51031 10729 ft 289 kts 232°
2026-04-22 07:39 38.87032 26.48995 11086 ft 311 kts 232°
2026-04-22 07:39 38.85576 26.46822 11513 ft 329 kts 232°
2026-04-22 07:39 38.84056 26.44557 11876 ft 338 kts 232°
2026-04-22 07:39 38.82478 26.42207 11966 ft 360 kts 232°
2026-04-22 07:40 38.80832 26.39754 11963 ft 372 kts 232°
2026-04-22 07:40 38.79136 26.37234 11957 ft 374 kts 232°
2026-04-22 07:40 38.77432 26.34705 11951 ft 374 kts 232°
2026-04-22 07:40 38.75739 26.32194 11945 ft 368 kts 232°
2026-04-22 07:41 38.74733 26.30703 11947 ft 364 kts 232°
2026-04-22 07:41 38.73079 26.28250 11948 ft 363 kts 232°
2026-04-22 07:41 38.71450 26.25836 11951 ft 362 kts 232°
2026-04-22 07:41 38.69805 26.23397 11954 ft 362 kts 232°
2026-04-22 07:42 38.68367 26.21268 11952 ft 362 kts 232°
2026-04-22 07:42 38.66716 26.18825 11953 ft 362 kts 231°
2026-04-22 07:42 38.65069 26.16390 11948 ft 362 kts 231°
2026-04-22 07:42 38.63406 26.13934 11951 ft 363 kts 231°
2026-04-22 07:43 38.61765 26.11514 11829 ft 364 kts 231°
2026-04-22 07:43 38.59942 26.09273 11162 ft 363 kts 219°
2026-04-22 07:43 38.57755 26.07673 10483 ft 362 kts 207°
2026-04-22 07:43 38.55473 26.06430 10158 ft 348 kts 205°
2026-04-22 07:44 38.53280 26.05294 9883 ft 333 kts 205°
2026-04-22 07:44 38.51179 26.04207 9627 ft 318 kts 205°
2026-04-22 07:44 38.49837 26.03509 9477 ft 309 kts 205°
2026-04-22 07:44 38.47885 26.02490 9220 ft 296 kts 205°
2026-04-22 07:45 38.46021 26.01517 8934 ft 284 kts 205°
2026-04-22 07:45 38.44226 26.00576 8652 ft 275 kts 206°
2026-04-22 07:45 38.42470 25.99652 8271 ft 271 kts 205°
2026-04-22 07:45 38.40732 25.98736 7857 ft 270 kts 205°
2026-04-22 07:46 38.39007 25.97830 7479 ft 268 kts 205°
2026-04-22 07:46 38.37283 25.96924 7073 ft 266 kts 205°
2026-04-22 07:46 38.35601 25.96040 6698 ft 264 kts 205°
2026-04-22 07:46 38.33916 25.95156 6417 ft 261 kts 205°
2026-04-22 07:47 38.32234 25.94274 6104 ft 260 kts 205°
2026-04-22 07:47 38.30556 25.93394 6039 ft 257 kts 205°
2026-04-22 07:47 38.28962 25.92562 6057 ft 239 kts 205°
2026-04-22 07:47 38.27429 25.91868 5908 ft 230 kts 192°
2026-04-22 07:48 38.25875 25.91944 5939 ft 224 kts 170°
2026-04-22 07:48 38.24418 25.92720 5707 ft 232 kts 150°
2026-04-22 07:48 38.23280 25.94189 5439 ft 237 kts 124°
2026-04-22 07:48 38.22474 25.96025 5217 ft 238 kts 123°
2026-04-22 07:49 38.21647 25.97815 4918 ft 237 kts 124°
2026-04-22 07:49 38.20748 25.99574 4576 ft 237 kts 127°
2026-04-22 07:49 38.19819 26.01315 4207 ft 239 kts 126°
2026-04-22 07:49 38.18920 26.03102 3794 ft 242 kts 125°
2026-04-22 07:50 38.17998 26.04925 3305 ft 247 kts 126°
2026-04-22 07:50 38.17042 26.06776 2862 ft 250 kts 123°
2026-04-22 07:50 38.16398 26.08788 2646 ft 245 kts 98°
2026-04-22 07:50 38.16818 26.10776 2532 ft 230 kts 53°
2026-04-22 07:51 38.18094 26.11835 2412 ft 215 kts 12°
2026-04-22 07:51 38.19538 26.11870 2406 ft 207 kts 353°
2026-04-22 07:51 38.20956 26.11713 2207 ft 206 kts 355°
2026-04-22 07:51 38.22355 26.11678 2003 ft 197 kts
2026-04-22 07:52 38.23688 26.11865 1818 ft 186 kts 10°
2026-04-22 07:52 38.24910 26.12150 1736 ft 172 kts
2026-04-22 07:52 38.26055 26.12393 1545 ft 161 kts
2026-04-22 07:52 38.27107 26.12587 1495 ft 148 kts
2026-04-22 07:53 38.28128 26.12769 1248 ft 147 kts
2026-04-22 07:53 38.29138 26.12982 1059 ft 147 kts
2026-04-22 07:53 38.30152 26.13148 829 ft 144 kts
2026-04-22 07:53 38.31141 26.13360 660 ft 145 kts 10°
2026-04-22 07:54 38.32147 26.13561 394 ft 144 kts 12°
2026-04-22 07:54 38.33098 26.13795 182 ft 140 kts 11°
2026-04-22 07:54 38.33998 26.13983 34 ft 138 kts 10°
2026-04-22 07:54 38.34695 26.14132 32 ft 68 kts
2026-04-22 07:55 38.34977 26.14173 31 ft 22 kts 352°
2026-04-22 07:55 38.35009 26.14196 32 ft 5 kts 166°
2026-04-22 07:55 38.34979 26.14193 32 ft 8 kts 190°
2026-04-22 07:55 38.34847 26.14165 32 ft 32 kts 190°
2026-04-22 07:56 38.34555 26.14107 32 ft 49 kts 188°
2026-04-22 07:56 38.34364 26.14083 32 ft 3 kts 114°
2026-04-22 07:56 38.34418 26.14188 32 ft 24 kts 46°
2026-04-22 07:56 38.34476 26.14216 32 ft 0 kts